Temperature
18 18 18 18 18 18 18 18 18 18 18 18 18 18 18 18 18 18 18 18 17 17 17 17 17 17 17 17 16 16 16 16 16 16 16 16 16 16 15 15 16 16 15
18 18 18 18 18 18 18 18 18 18 18 18 18 18 18 18 18 18 18 17 17 17 17 17 17 17 17 16 16 16 16 16 16 16 16 16 16 15 15 15 15 15 15
18 18 18 18 18 18 18 18 18 18 18 18 18 18 18 18 18 18 17 17 17 17 17 17 16 16 16 16 16 16 16 16 16 16 16 16 16 16 15 15 15 15 15
18 18 18 18 18 18 18 18 18 18 18 18 18 18 18 18 17 17 17 17 17 17 17 17 16 16 16 16 16 16 16 16 16 16 16 16 16 15 15 15 15 15 15
18 18 18 18 18 18 18 18 18 18 18 18 18 18 18 17 17 17 17 17 17 17 16 16 16 16 16 16 16 16 16 16 16 16 15 15 15 15 15 15 15 15 15
18 18 18 18 18 18 18 18 18 18 18 18 18 17 17 17 17 17 17 17 17 16 16 16 16 16 16 16 16 16 16 15 15 15 15 15 15 15 15 15 15 15 15
18 18 18 18 18 18 18 18 18 18 18 18 17 17 17 17 17 17 17 17 16 16 16 16 16 16 16 16 16 15 15 15 15 15 15 15 15 15 14 14 14 14 14
18 18 18 18 18 18 18 18 18 18 18 17 17 17 16 16 16 16 16 16 16 16 16 16 15 16 16 15 15 15 15 15 15 15 15 15 15 14 14 14 14 14 14
18 18 18 18 18 18 18 18 17 17 17 17 17 17 16 16 16 16 16 16 16 16 15 15 15 15 15 15 15 15 15 15 15 15 15 15 14 14 14 14 14 14 14
18 18 18 18 18 18 18 18 17 17 17 17 17 17 16 16 16 16 15 16 15 15 15 15 15 15 15 15 15 15 15 15 15 15 15 14 14 14 14 14 14 14 14
18 18 18 18 18 18 18 17 17 17 17 17 17 16 16 16 16 16 15 15 15 15 15 15 15 15 15 15 15 15 15 15 15 14 14 14 14 14 14 13 13 13 13
18 18 18 18 18 18 17 17 17 17 17 17 16 16 16 16 16 16 16 15 15 15 15 15 15 15 15 15 15 15 15 15 15 14 14 14 14 14 13 13 13 13 13
18 18 18 18 18 18 17 17 17 17 17 16 16 16 16 16 16 16 16 15 15 14 14 14 14 14 14 14 14 14 14 14 14 14 14 14 13 13 13 13 13 13 12
19 18 18 18 18 18 17 17 17 17 17 16 16 16 16 16 16 16 16 15 15 14 14 14 14 14 14 14 14 14 14 14 14 13 13 13 13 13 13 13 13 13 12
19 18 18 18 18 17 17 17 17 17 17 16 16 16 16 16 16 16 15 15 15 14 14 14 14 14 14 14 14 13 13 13 13 13 13 13 13 13 13 13 12 12 12
19 18 18 18 18 17 17 17 17 17 16 16 16 16 16 16 16 15 15 15 15 15 14 14 13 13 13 13 13 13 13 13 13 13 13 13 13 12 12 12 12 12 12
18 18 18 18 18 17 17 17 16 16 16 16 16 16 16 15 15 15 15 15 15 14 14 14 13 13 13 13 13 13 13 13 12 12 12 12 12 12 12 12 12 12 11
18 18 18 18 17 17 17 16 16 16 16 16 16 16 15 15 15 15 15 15 14 14 14 14 13 13 13 13 12 12 12 12 12 12 12 12 12 12 12 12 11 11 11
19 18 18 18 17 17 17 16 16 16 16 16 15 15 15 15 15 15 15 15 14 14 14 14 13 13 13 12 12 12 12 12 12 12 11 12 11 11 11 11 11 11 11
19 18 18 18 17 17 17 16 16 16 16 15 15 15 15 15 15 15 15 14 14 14 14 13 13 13 12 12 12 12 12 11 11 11 11 11 11 11 11 11 11 11 10
19 18 18 18 17 17 17 16 16 16 15 15 15 15 15 15 15 15 14 14 14 14 13 13 13 13 12 12 12 12 11 11 11 11 11 11 11 11 11 10 10 10 10
18 18 18 18 17 17 17 16 16 16 15 15 15 15 15 15 14 14 14 14 14 14 13 13 13 13 13 12 12 12 11 11 11 11 11 11 11 11 10 10 10 10 10
18 18 18 18 17 17 17 16 16 15 15 15 15 15 15 14 14 14 14 14 14 14 13 13 13 13 13 12 12 12 11 11 11 11 11 10 10 10 10 10 10 10 10
18 18 18 17 17 17 16 16 16 15 15 15 15 15 14 14 14 14 14 14 14 14 13 13 13 13 13 12 12 12 11 11 11 11 10 10 10 10 10 10 10 10 10
18 18 18 17 17 17 16 16 15 15 15 15 15 14 14 14 14 14 14 14 14 13 13 13 13 13 12 12 12 11 11 11 11 10 10 10 10 10 10 10 10 10 10
18 17 17 17 17 16 16 16 15 15 15 15 14 14 14 14 14 13 13 13 13 13 13 13 12 12 12 12 11 11 11 11 11 10 10 10 10 10 10 10 10 10 9
Wind_Speed
1 1 0 0 0 1 1 1 1 1 1 1 2 3 3 4 5 5 6 9 10 10 10 10 11 10 10 10 10 10 11 11 10 10 10 9 9 8 9 8 8 7 7
2 1 0 0 0 0 1 1 0 1 0 1 1 1 2 3 4 5 5 6 8 10 11 11 11 11 11 11 11 10 10 10 10 10 10 9 9 8 9 9 9 8 8
3 2 1 1 1 1 1 1 1 1 1 1 1 1 2 2 3 4 4 4 5 7 9 10 11 11 11 12 12 11 10 10 10 10 10 10 9 8 8 8 8 7 7
4 3 1 1 1 2 2 2 1 1 1 1 1 1 1 2 2 3 3 3 3 3 5 8 8 8 9 10 10 10 10 9 9 9 9 9 9 9 8 7 7 6 6
4 3 2 1 1 2 2 2 1 2 1 1 1 1 1 1 1 2 2 3 3 3 3 4 5 6 6 8 9 9 10 10 10 10 10 9 9 8 7 7 7 7 6
3 3 2 2 2 2 1 1 2 2 2 2 2 2 2 1 1 1 1 2 2 3 3 3 3 3 5 6 7 8 9 9 9 9 9 9 8 8 8 7 6 6 5
3 3 2 1 2 2 2 2 2 2 2 2 2 2 2 2 2 1 1 0 0 1 2 2 2 3 3 4 5 6 6 7 8 8 8 8 8 8 7 6 6 6 6
3 3 3 2 2 2 1 2 3 2 1 2 2 1 0 1 2 2 1 1 0 1 0 1 1 1 2 2 2 3 4 4 5 6 7 7 7 7 7 6 6 5 5
2 2 2 2 1 2 2 2 3 3 2 2 2 2 2 2 0 1 1 1 1 1 1 1 0 1 2 1 1 2 2 3 4 5 6 7 8 7 6 5 5 5 4
1 2 2 2 1 1 2 2 2 2 3 2 1 1 1 2 2 1 1 1 2 2 1 1 1 1 0 0 0 0 1 1 3 4 5 6 7 7 7 7 6 5 5
0 1 2 2 2 1 2 2 2 2 2 3 2 2 1 1 1 2 1 0 1 1 1 2 2 2 2 1 1 1 1 1 1 1 2 3 4 6 7 7 6 6 5
0 1 2 2 2 1 2 2 2 2 2 2 2 2 2 2 2 2 2 2 1 0 1 2 2 2 2 2 2 3 3 3 2 3 4 4 5 5 5 6 6 6 6
1 2 2 2 2 2 1 1 1 2 2 2 3 3 3 2 2 3 3 2 1 0 0 1 1 2 2 3 3 4 5 5 6 6 6 6 6 5 5 6 7 7 8
3 3 2 2 2 2 1 1 1 1 1 2 2 2 2 2 2 3 3 4 2 1 1 0 1 2 3 4 4 5 6 7 7 8 8 8 8 9 9 9 9 9 10
3 3 3 2 2 2 2 2 1 1 1 1 2 2 1 1 2 2 3 4 4 2 2 1 1 1 3 4 5 5 6 8 9 9 10 10 9 10 10 11 11 10 10
3 3 3 3 2 2 1 1 1 1 1 1 1 1 1 1 1 2 3 2 2 3 2 1 1 1 3 4 6 6 7 9 10 10 10 10 10 10 10 10 10 10 10
4 4 4 3 3 2 2 1 1 1 1 0 0 1 1 1 1 1 2 2 2 3 3 1 1 2 2 4 5 7 7 7 8 9 10 10 9 9 9 9 10 10 10
4 5 4 4 3 3 2 2 1 1 1 1 0 1 0 1 1 1 2 2 3 3 4 4 2 2 2 3 4 5 5 6 6 8 9 8 8 8 8 9 9 9 9
5 4 4 4 3 3 2 2 2 2 1 1 1 1 1 2 2 2 2 3 3 3 3 5 3 2 2 3 4 4 4 4 5 6 7 7 7 7 8 8 8 8 8
5 5 4 4 4 3 3 2 2 2 1 1 1 1 1 2 2 3 3 3 4 5 5 6 5 3 3 3 3 3 2 2 2 3 4 4 5 6 6 6 6 7 7
6 5 5 4 4 3 3 3 3 3 2 1 0 1 1 2 3 3 3 5 6 5 5 5 5 3 3 3 3 3 3 2 1 1 2 2 2 2 3 3 4 5 6
5 5 5 5 4 4 5 6 4 3 3 2 1 1 1 1 3 3 5 7 8 8 7 6 5 5 5 4 4 4 4 3 1 1 2 1 2 2 2 3 5 6 6
5 5 5 5 5 4 6 6 6 4 3 2 2 1 1 1 2 3 4 6 6 7 8 7 7 7 7 7 7 6 4 3 2 2 3 2 2 2 3 4 6 7 7
5 4 5 5 4 5 6 7 6 4 3 2 2 2 2 2 2 4 4 4 3 4 5 6 6 7 7 8 8 7 6 3 2 2 3 2 2 2 2 3 6 8 9
5 4 4 5 5 4 6 6 6 3 2 2 2 2 2 3 3 5 5 4 3 2 2 4 5 6 8 11 11 7 6 4 2 2 3 2 2 1 1 2 4 7 9
5 5 4 5 5 5 6 7 7 4 3 3 2 2 3 4 4 6 6 5 5 3 3 3 4 4 6 9 12 8 8 6 3 3 4 4 2 2 2 2 3 4 6
Wind_Direction
135 141 206 309 8 98 111 113 111 101 97 113 155 166 174 182 187 190 198 206 205 205 207 208 208 209 209 209 210 213 213 215 216 215 217 218 219 219 215 213 213 214 216
179 160 151 173 236 186 119 127 159 130 115 127 126 147 164 170 183 190 198 206 210 211 215 218 217 216 215 214 215 220 217 219 221 220 220 220 222 224 222 219 220 223 224
190 181 162 181 218 197 157 122 123 125 134 113 95 107 139 149 164 179 192 200 211 219 221 224 227 227 225 224 222 222 222 222 224 222 222 221 221 222 219 219 218 219 221
192 183 173 208 206 161 153 152 149 109 95 109 114 108 113 140 160 168 179 189 193 217 232 231 232 234 232 230 223 219 218 218 218 216 217 216 216 216 214 213 216 219 222
192 177 176 204 177 149 155 174 148 144 139 125 120 97 93 146 170 169 170 185 194 208 227 241 241 239 239 241 236 228 222 219 219 217 217 215 212 209 206 213 222 224 227
189 172 173 168 149 142 146 148 147 120 138 130 99 66 51 58 102 150 194 186 188 201 210 222 238 252 253 246 245 234 224 221 221 219 217 214 212 209 211 215 219 220 221
185 169 172 151 148 161 176 156 145 128 128 125 101 64 40 53 61 52 65 96 179 199 185 210 230 238 256 258 253 242 226 222 225 220 212 211 212 211 207 208 217 223 222
187 180 169 168 159 157 155 160 157 155 168 161 140 128 47 14 32 42 58 81 22 69 91 240 229 245 255 252 263 249 232 224 227 221 215 211 212 213 210 210 213 220 219
174 167 168 167 172 175 180 188 180 175 186 196 180 166 170 203 246 25 39 55 59 48 1 15 297 245 238 247 275 269 241 235 239 231 224 218 214 210 205 198 200 201 204
166 169 167 169 171 174 188 206 188 185 177 194 201 203 190 163 169 170 34 44 53 47 9 9 25 28 191 219 224 195 202 226 248 244 231 218 205 202 197 193 196 194 187
110 169 166 162 176 190 205 203 190 190 187 191 190 178 160 142 160 176 201 173 47 27 25 35 38 36 53 80 110 108 132 143 146 201 188 170 182 194 189 183 182 184 174
249 192 169 165 177 191 207 212 203 199 202 200 202 194 182 179 183 178 191 189 201 3 34 38 39 36 44 56 99 102 112 119 121 124 126 125 130 144 155 160 161 156 147
216 221 197 188 191 198 200 195 195 212 212 211 217 215 209 205 177 167 163 167 175 176 99 46 25 36 55 63 77 91 95 101 98 104 107 108 113 119 130 136 134 132 125
213 202 189 187 183 174 167 160 181 224 212 216 224 215 211 211 185 174 167 159 161 162 159 162 45 56 68 72 71 79 91 100 100 99 99 100 99 99 103 109 114 113 113
191 177 170 165 158 149 155 151 165 218 211 221 221 207 205 217 198 192 176 170 164 179 204 179 127 76 86 82 81 82 89 95 98 97 98 101 101 101 102 105 107 107 111
172 162 161 157 153 153 148 144 163 200 162 230 215 181 202 218 194 181 175 167 166 165 169 142 110 88 103 98 90 87 90 92 91 94 97 101 104 106 106 109 108 108 112
169 168 165 160 158 162 154 146 162 152 146 136 140 169 214 197 163 160 161 155 153 142 145 123 71 89 94 98 90 89 87 86 90 95 100 103 108 111 113 112 111 111 114
172 169 162 163 171 171 156 150 164 149 148 174 177 143 158 138 120 133 148 158 159 153 146 145 122 108 96 112 101 95 93 93 95 96 101 104 108 112 115 116 116 117 117
167 162 163 174 180 173 166 169 173 163 155 161 155 161 181 142 142 146 146 149 151 143 131 141 138 117 105 114 101 91 87 85 97 99 100 103 108 113 118 120 121 121 121
168 170 175 179 181 179 174 175 174 166 153 139 150 194 197 182 183 173 157 147 140 133 131 136 136 136 127 121 125 125 108 89 94 101 101 106 112 115 123 131 133 132 132
176 174 174 177 183 185 188 184 181 178 174 176 173 251 231 203 184 179 169 160 151 144 144 144 147 149 154 159 168 157 147 130 86 124 123 112 117 120 135 152 159 158 154
175 173 181 182 189 201 195 190 181 180 183 189 206 256 279 241 198 189 178 169 163 162 167 165 170 176 183 179 166 162 153 158 184 182 159 157 154 184 193 186 188 184 181
179 180 187 188 199 209 201 196 188 178 178 191 193 205 239 235 190 178 173 172 177 178 174 175 178 188 184 183 173 174 179 180 188 171 164 184 190 208 218 213 209 202 200
182 191 196 199 201 212 197 197 189 177 181 204 207 208 219 234 199 175 167 168 178 186 190 188 193 197 188 179 178 176 169 145 105 148 173 191 199 219 228 224 224 215 212
186 192 193 199 206 219 200 194 182 177 194 227 235 223 215 220 201 174 166 173 183 206 187 170 172 172 169 167 161 147 151 161 182 198 188 190 194 210 230 236 231 221 218
194 191 199 205 208 215 204 193 182 183 200 226 239 236 219 210 194 177 179 178 191 205 174 156 152 153 161 168 172 177 176 178 180 201 188 182 180 179 218 224 223 218 217
Height
1543 1544 1545 1547 1548 1549 1549 1550 1551 1552 1553 1554 1555 1556 1556 1557 1558 1558 1559 1559 1560 1560 1561 1561 1562 1562 1563 1563 1564 1565 1566 1567 1568 1569 1569 1570 1571 1571 1572 1573 1574 1574 1575
1545 1546 1547 1548 1549 1550 1550 1551 1552 1553 1554 1554 1555 1556 1556 1557 1557 1558 1558 1559 1559 1559 1560 1560 1560 1561 1561 1562 1563 1563 1564 1565 1566 1567 1568 1569 1569 1570 1571 1571 1572 1573 1573
1546 1547 1548 1548 1549 1550 1551 1552 1552 1553 1553 1554 1555 1555 1556 1556 1556 1557 1557 1557 1558 1558 1558 1559 1559 1559 1560 1561 1561 1562 1562 1563 1564 1565 1566 1567 1568 1568 1569 1569 1570 1571 1571
1547 1548 1548 1549 1549 1550 1551 1551 1552 1552 1553 1554 1554 1554 1555 1555 1555 1555 1556 1556 1556 1556 1557 1557 1558 1558 1558 1559 1559 1559 1560 1561 1562 1563 1564 1565 1565 1566 1566 1567 1568 1569 1569
1548 1548 1548 1549 1550 1550 1550 1551 1551 1552 1552 1553 1553 1553 1553 1554 1554 1554 1554 1554 1555 1555 1555 1556 1556 1556 1556 1556 1557 1557 1558 1558 1559 1561 1561 1562 1563 1564 1564 1565 1566 1566 1567
1548 1548 1549 1549 1549 1550 1550 1550 1551 1551 1551 1552 1552 1552 1552 1552 1552 1552 1552 1553 1553 1553 1553 1553 1553 1553 1554 1554 1555 1555 1555 1556 1557 1558 1559 1560 1560 1561 1562 1563 1563 1564 1564
1548 1548 1549 1549 1549 1549 1549 1549 1549 1550 1550 1550 1550 1550 1550 1550 1550 1551 1551 1551 1551 1551 1551 1551 1551 1551 1551 1552 1552 1553 1553 1553 1554 1555 1556 1557 1558 1558 1559 1560 1561 1561 1562
1548 1548 1548 1548 1548 1548 1548 1548 1548 1548 1548 1549 1549 1549 1549 1550 1549 1549 1549 1549 1549 1549 1549 1549 1549 1549 1550 1550 1550 1550 1551 1551 1552 1552 1553 1554 1554 1555 1557 1557 1558 1558 1559
1547 1548 1548 1548 1548 1547 1547 1547 1547 1547 1547 1547 1547 1548 1548 1547 1548 1548 1548 1548 1548 1548 1548 1547 1547 1547 1547 1548 1548 1548 1548 1548 1549 1550 1550 1550 1551 1552 1553 1554 1555 1555 1556
1547 1547 1547 1547 1546 1546 1546 1546 1546 1546 1545 1545 1545 1546 1547 1546 1546 1546 1547 1547 1546 1546 1546 1546 1546 1546 1546 1546 1546 1546 1546 1547 1547 1547 1547 1548 1549 1549 1550 1551 1552 1553 1554
1546 1546 1546 1545 1545 1545 1545 1545 1544 1544 1543 1543 1544 1544 1544 1544 1544 1544 1544 1545 1545 1545 1544 1544 1544 1544 1544 1544 1544 1544 1544 1545 1545 1545 1545 1546 1546 1547 1548 1549 1549 1550 1551
1545 1545 1545 1544 1544 1544 1543 1543 1542 1542 1542 1541 1542 1542 1542 1542 1542 1542 1542 1542 1543 1543 1543 1543 1543 1543 1543 1543 1543 1542 1543 1543 1543 1543 1544 1544 1545 1546 1546 1547 1548 1548 1549
1543 1543 1543 1543 1543 1542 1542 1541 1541 1540 1540 1539 1539 1539 1540 1540 1540 1540 1540 1540 1540 1541 1541 1541 1541 1542 1541 1541 1541 1541 1541 1541 1541 1542 1542 1543 1544 1544 1545 1545 1546 1547 1548
1542 1542 1542 1542 1541 1541 1540 1539 1539 1538 1537 1537 1537 1537 1537 1537 1538 1538 1538 1538 1538 1539 1539 1540 1540 1540 1540 1540 1540 1540 1540 1540 1540 1541 1542 1542 1543 1543 1543 1544 1545 1546 1547
1540 1540 1540 1540 1540 1539 1538 1537 1537 1536 1535 1535 1535 1534 1535 1535 1535 1536 1536 1536 1537 1536 1537 1538 1538 1538 1538 1539 1539 1540 1540 1539 1539 1539 1540 1541 1542 1543 1543 1544 1544 1545 1546
1538 1538 1539 1538 1538 1537 1536 1536 1535 1534 1533 1533 1533 1532 1532 1533 1533 1533 1533 1534 1534 1535 1535 1535 1536 1537 1537 1538 1538 1539 1539 1539 1539 1539 1539 1540 1541 1542 1543 1543 1544 1545 1545
1536 1536 1537 1536 1536 1535 1535 1534 1533 1532 1531 1531 1530 1530 1530 1531 1531 1531 1531 1532 1532 1533 1533 1534 1535 1536 1536 1537 1537 1537 1538 1538 1538 1539 1539 1540 1541 1542 1542 1543 1543 1544 1545
1534 1534 1534 1534 1534 1534 1533 1532 1532 1531 1530 1529 1529 1529 1529 1529 1529 1529 1530 1530 1530 1531 1531 1532 1533 1534 1535 1536 1536 1537 1537 1538 1538 1539 1539 1540 1540 1541 1542 1542 1543 1543 1544
1531 1532 1532 1532 1532 1532 1532 1531 1531 1530 1529 1528 1528 1528 1527 1527 1527 1527 1528 1528 1529 1529 1530 1530 1531 1533 1534 1535 1535 1536 1537 1537 1538 1538 1539 1539 1540 1541 1541 1542 1542 1543 1543
1529 1529 1530 1530 1530 1530 1530 1530 1529 1529 1528 1527 1527 1527 1526 1526 1526 1526 1526 1526 1527 1527 1528 1529 1530 1531 1532 1533 1534 1535 1535 1537 1537 1538 1538 1539 1539 1540 1541 1541 1542 1543 1543
1526 1527 1527 1527 1528 1528 1528 1528 1528 1527 1527 1526 1526 1525 1525 1525 1524 1524 1524 1525 1525 1526 1527 1528 1529 1530 1531 1531 1532 1533 1534 1535 1536 1537 1537 1538 1539 1539 1540 1541 1541 1542 1542
1523 1524 1524 1524 1525 1525 1525 1525 1525 1525 1525 1525 1524 1524 1524 1523 1523 1523 1523 1523 1524 1524 1525 1526 1527 1528 1528 1530 1531 1532 1533 1534 1535 1537 1537 1537 1538 1538 1539 1540 1541 1541 1542
1520 1520 1521 1521 1522 1522 1523 1523 1523 1523 1523 1523 1522 1522 1522 1522 1522 1522 1521 1521 1522 1523 1524 1525 1525 1526 1527 1528 1529 1530 1531 1533 1533 1535 1535 1536 1537 1537 1538 1539 1539 1540 1540
1516 1517 1517 1518 1519 1519 1520 1520 1521 1521 1520 1520 1520 1520 1520 1520 1520 1520 1520 1520 1520 1521 1522 1523 1523 1524 1525 1527 1528 1529 1530 1531 1532 1533 1534 1534 1535 1536 1537 1537 1538 1538 1539
1513 1513 1514 1515 1515 1516 1516 1517 1518 1518 1518 1518 1518 1517 1517 1517 1517 1518 1518 1518 1519 1519 1520 1520 1521 1523 1524 1525 1525 1526 1527 1529 1529 1531 1532 1533 1533 1534 1535 1535 1536 1536 1536
1509 1510 1511 1511 1512 1512 1513 1514 1515 1514 1515 1515 1515 1515 1514 1514 1515 1515 1515 1516 1516 1517 1518 1518 1519 1520 1521 1522 1523 1525 1525 1526 1527 1528 1530 1531 1531 1532 1532 1533 1533 1534 1534